Hourly Data Report for October 30, 2013

All times are specified in Local Standard Time (LST). Add 1 hour to adjust for Daylight Saving Time where and when it is observed.

GJOA HAVEN A
NUNAVUT

68°38'08.000" N
95°51'01.000" W
46.90 m
2302337
71597
YHK

Download Data

Hourly Data (October 2013)
Hourly Data Report for October 30, 2013
Temp Definition
°C
Dew Point Temp Definition
°C
Rel Hum Definition
%
Wind Dir Definition
10's deg

Wind Spd Definition
km/h
Visibility Definition
km
Stn Press Definition
kPa
Hmdx Definition


Wind Chill Definition


Weather Definition


TIME
00:00 Legend Double Dagger -15.6 -17.0 89 16 18 8.1 100.27   -24 LegendNANA
01:00 Legend Double Dagger -15.8 -17.2 89 14 18 9.7 100.23   -25 LegendNANA
02:00 Legend Double Dagger -16.0 -17.5 88 11 17 12.9 100.17   -25 LegendNANA
03:00 Legend Double Dagger -16.1 -17.6 88 13 17 12.9 100.14   -25 LegendNANA
04:00 Legend Double Dagger -16.6 -18.2 88 11 24 11.3 100.11   -27 LegendNANA
05:00 Legend Double Dagger -17.5 -19.2 87 12 30 11.3 100.09   -29 LegendNANA
06:00 Legend Double Dagger -18.0 -19.7 87 12 33 8.1 100.06   -30 LegendNANA
07:00 Legend Double Dagger -18.3 -20.0 87 12 33 4.8 100.03   -31 LegendNANA
08:00 Legend Double Dagger -17.8 -19.5 87 10 35 14.5 99.98   -30 LegendNANA
09:00 Legend Double Dagger -17.8 -19.4 87 12 30 16.1 100.00   -30 LegendNANA
10:00 Legend Double Dagger -17.3 -18.9 88 13 32 16.1 99.99   -29 LegendNANA
11:00 Legend Double Dagger -16.4 -17.9 89 14 30 16.1 99.98   -28 LegendNANA
12:00 Legend Double Dagger -16.3 -17.9 88 13 30 16.1 99.99   -28 LegendNANA
13:00 Legend Double Dagger -16.2 -17.6 89 13 30 16.1 100.01   -28 LegendNANA
14:00 Legend Double Dagger -16.3 -17.8 88 13 32 16.1 100.05   -28 LegendNANA
15:00 Legend Double Dagger -16.8 -18.3 88 12 30 16.1 100.07   -28 LegendNANA
16:00 Legend Double Dagger -17.0 -18.6 88 14 30 16.1 100.09   -29 LegendNANA
17:00 Legend Double Dagger -16.2 -17.6 89 13 28 16.1 100.09   -27 LegendNANA
18:00 Legend Double Dagger -17.5 -19.2 87 11 35 16.1 100.08   -30 LegendNANA
19:00 Legend Double Dagger -17.3 -19.0 87 11 33 16.1 100.08   -30 LegendNANA
20:00 Legend Double Dagger -17.7 -19.5 86 10 30 16.1 100.08   -30 LegendNANA
21:00 Legend Double Dagger -17.8 -19.5 87 10 32 16.1 100.06   -30 LegendNANA
22:00 Legend Double Dagger -17.5 -19.2 87 11 33 16.1 100.07   -30 LegendNANA
23:00 Legend Double Dagger -17.1 -18.8 87 10 26 16.1 100.09   -28 LegendNANA

Notes on Data Quality.

Legend

  • E = Estimated
  • M = Missing
  • NA = Not Available
  • ‡ = Partner data that is not subject to review by the National Climate Archives
Date modified: